DW3201 Weather Reports


Display with metric or nautical units.
time (UTC)temp
F
wind
direction
speed
MPH
gust
MPH
rain 1hr
in
rain 24hr
in
rain mn
in
humidity
%
barometer
mb
20190216125733 2 309 0.0 0.0 0.00 0.00 0.00 79 1021.7
20190216124732 2 309 0.0 0.0 0.00 0.00 0.00 79 1021.3
20190216123728 3 309 0.0 0.0 0.00 0.00 0.00 79 1021.3
20190216122727 3 309 0.0 0.0 0.00 0.00 0.00 79 1021.7
20190216121727 3 309 0.0 2.0 0.00 0.00 0.00 79 1021.7
20190216120725 4 309 1.0 2.0 0.00 0.00 0.00 79 1021.7
20190216115724 4 309 2.0 3.0 0.00 0.00 0.00 79 1021.7
20190216114723 5 310 2.0 3.0 0.00 0.00 0.00 79 1022.0
20190216113722 5 301 2.0 5.0 0.00 0.00 0.00 79 1021.7
20190216112721 5 307 2.0 3.0 0.00 0.00 0.00 79 1021.7
20190216111719 5 307 1.0 3.0 0.00 0.00 0.00 79 1021.7
20190216110718 5 307 2.0 3.0 0.00 0.00 0.00 79 1021.7
20190216105718 5 307 1.0 4.0 0.00 0.00 0.00 79 1021.7
20190216104717 5 305 2.0 4.0 0.00 0.00 0.00 79 1021.3
20190216103716 5 313 1.0 4.0 0.00 0.00 0.00 79 1021.0
20190216102715 5 311 2.0 4.0 0.00 0.00 0.00 79 1021.3
20190216101714 5 309 2.0 4.0 0.00 0.00 0.00 79 1021.3
20190216100713 5 318 2.0 4.0 0.00 0.00 0.00 79 1021.3
20190216095712 5 311 2.0 4.0 0.00 0.00 0.00 79 1021.3
20190216094711 5 296 2.0 3.0 0.00 0.00 0.00 79 1021.3
20190216093710 6 296 1.0 3.0 0.00 0.00 0.00 78 1021.3
20190216092709 5 296 1.0 3.0 0.00 0.00 0.00 79 1021.0
20190216091708 5 296 1.0 2.0 0.00 0.00 0.00 79 1021.0
20190216090707 5 296 1.0 2.0 0.00 0.00 0.00 79 1020.7
20190216085706 5 296 0.0 3.0 0.00 0.00 0.00 79 1020.7
20190216084700 5 295 0.0 0.0 0.00 0.00 0.00 79 1020.7
20190216083659 5 296 0.0 1.0 0.00 0.00 0.00 79 1020.3
20190216082658 6 295 1.0 1.0 0.00 0.00 0.00 79 1020.3
20190216081657 6 296 0.0 1.0 0.00 0.00 0.00 79 1020.3
20190216080656 5 296 1.0 2.0 0.00 0.00 0.00 79 1020.7
20190216075655 6 295 0.0 2.0 0.00 0.00 0.00 79 1020.7
20190216074654 6 296 0.0 2.0 0.00 0.00 0.00 79 1020.7
20190216073653 7 296 2.0 3.0 0.00 0.00 0.00 79 1020.3
20190216072652 7 294 2.0 3.0 0.00 0.00 0.00 79 1020.7
20190216071651 7 294 1.0 4.0 0.00 0.00 0.00 79 1020.7
20190216070650 7 317 1.0 2.0 0.00 0.00 0.00 79 1020.7
20190216065649 7 317 0.0 1.0 0.00 0.00 0.00 79 1020.7
20190216064648 8 317 0.0 2.0 0.00 0.00 0.00 79 1020.7
20190216063647 8 317 0.0 3.0 0.00 0.00 0.00 79 1020.7
20190216062646 8 317 2.0 3.0 0.00 0.00 0.00 78 1020.7
20190216061645 8 317 2.0 3.0 0.00 0.00 0.00 78 1020.3
20190216060644 9 317 2.0 3.0 0.00 0.00 0.00 78 1020.3
20190216055643 9 312 2.0 3.0 0.00 0.00 0.00 77 1020.3
20190216054642 10 309 2.0 5.0 0.00 0.00 0.00 77 1020.3
20190216053640 10 321 2.0 4.0 0.00 0.00 0.00 77 1020.3
20190216052639 10 313 2.0 4.0 0.00 0.00 0.00 77 1020.3
20190216051638 10 313 2.0 3.0 0.00 0.00 0.00 77 1020.0
20190216050637 11 318 1.0 2.0 0.00 0.00 0.00 77 1020.0
20190216045636 11 320 2.0 4.0 0.00 0.00 0.00 77 1020.0
20190216044636 11 326 2.0 4.0 0.00 0.00 0.00 77 1020.0
20190216043635 11 336 2.0 3.0 0.00 0.00 0.00 77 1019.6
20190216042634 11 336 1.0 2.0 0.00 0.00 0.00 77 1019.6
20190216041633 10 336 2.0 3.0 0.00 0.00 0.00 78 1019.3
20190216040631 10 315 2.0 3.0 0.00 0.00 0.00 78 1019.3
20190216035631 10 300 1.0 4.0 0.00 0.00 0.00 78 1019.3
20190216034629 10 301 2.0 2.0 0.00 0.00 0.00 77 1019.0
20190216033629 10 301 1.0 3.0 0.00 0.00 0.00 77 1019.0
20190216032627 11 323 2.0 3.0 0.00 0.00 0.00 77 1019.0
20190216031627 11 322 1.0 3.0 0.00 0.00 0.00 77 1019.0
20190216030625 10 325 3.0 5.0 0.00 0.00 0.00 77 1019.0
20190216025624 10 315 3.0 4.0 0.00 0.00 0.00 77 1019.0
20190216024623 10 327 3.0 4.0 0.00 0.00 0.00 77 1019.0
20190216023622 11 324 2.0 4.0 0.00 0.00 0.00 77 1019.0
20190216022621 11 313 2.0 3.0 0.00 0.00 0.00 76 1019.0
20190216021620 12 310 2.0 3.0 0.00 0.00 0.00 76 1019.0
20190216020618 12 310 2.0 4.0 0.00 0.00 0.00 76 1018.6
20190216015611 12 304 1.0 3.0 0.00 0.00 0.00 76 1018.3
20190216014610 11 304 2.0 3.0 0.00 0.00 0.00 76 1018.3
20190216013609 12 333 0.0 1.0 0.00 0.00 0.00 76 1018.3
20190216012608 12 333 0.0 3.0 0.00 0.00 0.00 76 1018.3
20190216011607 12 333 1.0 2.0 0.00 0.00 0.00 75 1017.9
20190216010606 13 333 1.0 3.0 0.00 0.00 0.00 75 1017.9
20190216005606 13 333 1.0 2.0 0.00 0.00 0.00 75 1017.9
20190216004605 13 333 0.0 0.0 0.00 0.00 0.00 74 1017.6
20190216003604 13 333 0.0 3.0 0.00 0.00 0.00 74 1017.6
20190216002603 14 333 2.0 4.0 0.00 0.00 0.00 73 1017.6
20190216001603 14 333 2.0 4.0 0.00 0.00 0.00 73 1017.3
20190216000602 14 333 2.0 3.0 0.00 0.00 0.00 73 1017.3
20190215235601 14 331 0.0 3.0 0.00 0.00 0.00 72 1017.3
20190215234600 15 334 2.0 3.0 0.00 0.00 0.00 71 1016.9
20190215233559 15 323 2.0 4.0 0.00 0.00 0.00 71 1016.9
20190215232557 15 321 2.0 6.0 0.00 0.00 0.00 71 1016.6
20190215231556 16 315 2.0 4.0 0.00 0.00 0.00 70 1016.3
20190215230555 16 307 2.0 6.0 0.00 0.00 0.00 70 1016.3
20190215225552 17 313 3.0 5.0 0.00 0.00 0.00 69 1015.9
20190215224551 17 311 3.0 6.0 0.00 0.00 0.00 69 1015.9
20190215223550 18 321 4.0 5.0 0.00 0.00 0.00 68 1015.6
20190215222549 18 288 4.0 10.0 0.00 0.00 0.00 69 1015.6
20190215221548 18 298 5.0 10.0 0.00 0.00 0.00 68 1015.2
20190215220547 19 318 3.0 9.0 0.00 0.00 0.00 67 1015.2
20190215215546 19 310 2.0 7.0 0.00 0.00 0.00 67 1015.2
20190215214546 19 300 5.0 12.0 0.00 0.00 0.00 66 1015.2
20190215213545 19 301 4.0 11.0 0.00 0.00 0.00 66 1015.2
20190215212544 19 302 4.0 11.0 0.00 0.00 0.00 66 1014.9
20190215211543 19 300 3.0 9.0 0.00 0.00 0.00 65 1015.2
20190215210542 19 296 6.0 11.0 0.00 0.00 0.00 65 1015.2
20190215205541 19 267 2.0 8.0 0.00 0.00 0.00 66 1015.2
20190215204541 19 312 3.0 12.0 0.00 0.00 0.00 66 1014.9
20190215203540 18 291 4.0 13.0 0.00 0.00 0.00 65 1014.9
20190215202539 19 297 4.0 9.0 0.00 0.00 0.00 66 1014.9
20190215201538 18 296 5.0 10.0 0.00 0.00 0.00 67 1014.6
20190215200537 17 307 5.0 10.0 0.00 0.00 0.00 68 1014.9
20190215195536 16 299 2.0 12.0 0.00 0.00 0.00 66 1014.9
20190215194536 16 290 4.0 13.0 0.00 0.00 0.00 67 1014.6
20190215193535 16 295 5.0 11.0 0.00 0.00 0.00 68 1014.9
20190215192534 16 313 6.0 12.0 0.00 0.00 0.00 67 1014.6
20190215191533 16 302 6.0 15.0 0.00 0.00 0.00 67 1014.6
20190215190532 16 285 3.0 15.0 0.00 0.00 0.00 67 1014.6
20190215185531 16 294 5.0 12.0 0.00 0.00 0.00 66 1014.6
20190215184530 15 286 4.0 12.0 0.00 0.00 0.00 69 1014.6
20190215183530 15 304 6.0 14.0 0.00 0.00 0.00 67 1014.2
20190215182529 15 288 6.0 12.0 0.00 0.00 0.00 68 1014.2
20190215181528 14 300 6.0 13.0 0.00 0.00 0.00 68 1013.9
20190215180527 14 291 5.0 12.0 0.00 0.00 0.00 68 1013.5
20190215175526 14 295 4.0 16.0 0.00 0.00 0.00 69 1013.9
20190215174525 13 293 7.0 15.0 0.00 0.00 0.00 69 1013.9
20190215173524 14 285 5.0 13.0 0.00 0.00 0.00 68 1013.9
20190215172523 14 301 3.0 13.0 0.00 0.00 0.00 68 1013.5
20190215171522 14 264 4.0 10.0 0.00 0.00 0.00 69 1013.2
20190215170521 12 311 4.0 12.0 0.00 0.00 0.00 70 1013.2
20190215165521 12 288 9.0 16.0 0.00 0.00 0.00 70 1013.2
20190215164520 12 301 7.0 14.0 0.00 0.00 0.00 70 1012.9
20190215163519 12 297 9.0 14.0 0.00 0.00 0.00 71 1012.9
20190215162517 11 269 4.0 13.0 0.00 0.00 0.00 71 1012.5
20190215161516 11 247 3.0 10.0 0.00 0.00 0.00 72 1012.5
20190215160515 10 301 7.0 14.0 0.00 0.00 0.00 72 1012.5
20190215155514 11 292 7.0 14.0 0.00 0.00 0.00 72 1012.2
20190215154513 9 283 3.0 13.0 0.00 0.00 0.00 74 1012.2
20190215153512 9 304 5.0 13.0 0.00 0.00 0.00 74 1012.2
20190215152511 8 293 8.0 14.0 0.00 0.00 0.00 75 1011.9
20190215151510 8 296 6.0 16.0 0.00 0.00 0.00 75 1011.9
20190215150509 8 304 7.0 14.0 0.00 0.00 0.00 75 1011.5
20190215145508 8 294 7.0 16.0 0.00 0.00 0.00 76 1011.5
20190215144508 7 295 8.0 14.0 0.00 0.00 0.00 76 1011.5
20190215143507 7 305 8.0 17.0 0.00 0.00 0.00 76 1011.5
20190215142506 7 301 8.0 15.0 0.00 0.00 0.00 76 1011.5
20190215141505 7 297 7.0 13.0 0.00 0.00 0.00 77 1011.5
20190215140504 7 292 5.0 11.0 0.00 0.00 0.00 77 1011.2
20190215135503 7 271 3.0 10.0 0.00 0.00 0.00 77 1010.8
20190215134502 6 294 5.0 11.0 0.00 0.00 0.00 78 1010.8
20190215133501 6 303 4.0 13.0 0.00 0.00 0.00 78 1011.2
20190215132500 6 294 6.0 19.0 0.00 0.00 0.00 78 1010.8
20190215131459 6 290 6.0 17.0 0.00 0.00 0.00 78 1010.5
20190215130458 7 304 4.0 11.0 0.00 0.00 0.00 78 1010.2